#timestamp,LO_Frequency,Hit,StdDev 
1624615215.4,286046997.5,N
1624615235.2,286046996.8,N
1624615255.1,286046998.4,N
1624615256.0,286046998.4,N
1624615275.8,286046999.6,N
1624615295.6,286046999.3,N
1624615315.5,286046999.3,N
1624615335.3,286046998.8,N
1624615355.2,286046998.5,N
1624615375.9,286046999.0,N
1624615395.7,286046999.1,N
1624615415.6,286046998.7,N
1624615435.4,286046998.8,N
1624615455.2,286046998.2,N
1624615475.1,286047000.9,N
1624615476.0,286047000.9,N
1624615495.8,286046998.2,N
1624615515.6,286047001.1,N
1624615535.5,286046998.1,N
1624615555.3,286046998.3,N
1624615575.2,286046998.8,N
1624615595.9,286046998.9,N
1624615615.7,286046998.8,N
1624615635.6,286046998.2,N
1624615655.4,286046998.8,N
1624615675.2,286046999.3,N
1624615695.1,286046998.4,N
1624615696.0,286046998.4,N
1624615715.8,286046998.6,N
1624615735.7,286046998.3,N
1624615755.5,286046998.5,N
1624615775.3,286046998.6,N
1624615795.2,286047001.1,N
1624615815.0,286047001.1,N
1624615815.9,286047001.1,N
1624615835.7,286046999.2,N
1624615855.6,286046996.5,Y
1624615875.4,286046997.2,P
1624615895.3,286046996.7,P
1624615915.1,286046997.4,N
1624615935.8,286046997.3,N
1624615955.7,286046994.9,Y
1624615975.5,286046999.0,P
1624615995.4,286047001.1,N
1624616015.2,286047000.8,N
1624616035.0,286047002.3,N
1624616035.9,286047002.3,N
1624616055.8,286047004.0,N
1624616075.6,286047001.5,N
1624616095.4,286047003.5,N
1624616115.3,286047004.1,N
1624616135.1,286047004.2,N
1624616155.9,286047001.4,N
1624616175.7,286047004.2,N
1624616195.5,286047003.6,N
1624616215.4,286047004.1,N
1624616235.2,286047004.1,N
1624616255.0,286047004.3,N
1624616255.9,286047004.3,N
1624616275.8,286047003.8,N
1624616295.6,286047001.9,N
1624616315.5,286047002.4,N
1624616335.3,286047000.0,N
1624616355.1,286047002.7,N
1624616375.9,286047000.9,N
1624616395.7,286046998.4,N
1624616415.6,286046998.1,N
1624616435.4,286047001.2,N
1624616455.2,286046998.2,N
1624616475.1,286047000.7,N
1624616476.0,286047000.7,N
1624616495.8,286046999.0,N
1624616515.6,286046999.4,N
1624616535.5,286046999.6,N
1624616555.3,286046998.9,N
1624616575.1,286046998.9,N
1624616595.9,286046999.3,N
1624616615.7,286046999.2,N
1624616635.6,286046999.5,N
1624616655.4,286046997.1,N
1624616675.2,286046999.6,N
1624616695.1,286046997.0,N
1624616696.0,286046997.0,N
1624616715.8,286046997.2,N
1624616735.6,286046996.7,N
1624616755.5,286046997.3,N
1624616775.3,286046997.5,N
1624616795.2,286046998.0,N
1624616815.9,286046995.2,N
1624616835.7,286046997.8,N
1624616855.6,286046997.6,N
1624616875.4,286046997.6,N
1624616895.2,286046995.6,N
1624616915.1,286046995.4,N
1624616916.0,286046995.4,N
1624616935.8,286046995.2,Y
1624616955.7,286046999.4,P
1624616975.5,286046999.5,N
1624616995.3,286046999.0,N
1624617015.2,286047000.7,N
1624617035.0,286046998.5,N
1624617035.9,286046998.5,N
1624617055.8,286046999.3,N
1624617075.6,286046999.0,N
1624617095.4,286046999.0,N
1624617115.3,286046998.5,N
1624617135.1,286047000.9,N
1624617155.8,286047001.2,N
1624617175.7,286047001.1,N
1624617195.5,286047000.6,N
1624617215.3,286047000.4,N
1624617235.2,286047001.0,N
1624617255.0,286046998.2,N
1624617255.9,286046998.2,N
1624617275.8,286046998.1,N
1624617295.6,286047001.0,N
1624617315.4,286047000.9,N
1624617335.3,286047000.4,N
1624617355.1,286047000.3,N
1624617375.8,286047002.7,N
1624617395.7,286047002.8,N
1624617415.6,286047002.2,N
1624617435.4,286047002.4,N
1624617455.2,286046998.3,N
1624617475.1,286047002.4,N
1624617476.0,286047002.4,N
1624617495.8,286047002.3,N
1624617515.7,286046999.8,N
1624617535.5,286047000.3,N
1624617555.3,286046999.7,N
1624617575.2,286047002.7,N
1624617595.0,286046999.9,N
1624617595.9,286046999.9,N
1624617615.8,286047000.6,N
1624617635.6,286047000.0,N
1624617655.4,286047000.0,N
1624617675.3,286047002.5,N
1624617695.1,286046999.7,N
1624617715.8,286047002.6,N
1624617735.7,286047001.8,N
1624617755.5,286047002.4,N
1624617775.4,286047002.0,N
1624617795.2,286047001.6,N
1624617815.0,286047002.6,N
1624617815.9,286047002.6,N
1624617835.8,286047002.1,N
1624617855.6,286047002.5,N
1624617875.5,286047002.5,N
1624617895.3,286047001.9,N
1624617915.1,286047003.8,N
1624617935.9,286047003.9,N
1624617955.7,286047001.7,N
1624617975.5,286047001.5,N
1624617995.4,286047002.1,N
1624618015.2,286047004.4,Y
1624618035.1,286046999.9,P
1624618036.0,286046999.9,N
1624618055.8,286047001.0,N
1624618075.6,286046998.2,N
1624618095.5,286047005.3,Y
1624618115.3,286047008.5,P
1624618135.2,286047008.3,N
1624618155.9,286047006.2,N
1624618175.7,286047004.8,N
1624618195.6,286047003.8,N
1624618215.4,286047005.1,N
1624618235.2,286047005.3,N
1624618255.1,286047003.5,N
1624618256.0,286047003.5,N
1624618275.8,286047004.1,N
1624618295.7,286047003.4,N
1624618315.5,286047001.4,N
1624618335.3,286047004.0,N
1624618355.2,286047001.8,N
1624618375.0,286047001.3,N
1624618375.9,286047001.3,N
1624618395.7,286047003.8,N
1624618415.6,286047001.7,N
1624618435.4,286047001.9,N
1624618455.3,286047002.1,N
1624618475.1,286046999.7,N
1624618476.0,286046999.7,N
1624618495.8,286047001.3,N
1624618515.7,286047002.0,N
1624618535.5,286047002.2,N
1624618555.4,286047001.5,N
1624618575.2,286047001.9,N
1624618595.0,286047001.7,N
1624618595.9,286047001.7,N
1624618615.8,286047003.9,N
1624618635.6,286047004.1,N
1624618655.4,286047001.6,N
1624618675.3,286047001.7,N
1624618695.1,286047003.8,N
1624618715.9,286047004.0,N
1624618735.7,286047001.3,N
1624618755.5,286047004.4,Y
1624618775.4,286047000.3,P
1624618795.2,286047001.2,N
